Погода в Лейк-Луизе

Канада     51°25′31″N   116°10′47″W
темп.,
°C
ветер,
м/с
пор.,
м/с
влажн.,
%
обл.,
%
осадки,
мм/ч
давл.,
гПа
погр.,
м
12 апреля, пн
пн1200:00−10св1197100 0.9 103059
03:00−13св2294100 0.6 103536
06:00−20св329761 0.7 104413
09:00−11св228168 0.0 1036136
12:00−6в1263100 0.1 10331506
15:00−5всв1166100 0.3 10321343
18:00−4св1159100 0.6 10311193
21:00−10всв2290100 0.4 103711
13 апреля, вт
вт1300:00−17св22977 0.4 104512
03:00−20св2210028 0.0 104711
06:00−20св221005 0.0 104811
09:00−9в11845 0.0 1038106
12:00−4юз11789 0.0 1032491
15:00−2юз108474 0.0 1030571
18:00−1зсз01787 0.0 1028551
21:00−9ссв11895 0.0 103310
14 апреля, ср
ср1400:00−12ссв22925 0.0 103712
03:00−13ссв32874 0.0 103812
06:00−13ссв32803 0.0 103813
09:00−4св226693 0.0 102976
12:00+1всв1276100 0.0 1025346
15:00+2св22808 0.0 1023514
18:00+2св228913 0.0 1023177
21:00−5ссв22876 0.0 102810
15 апреля, чт
чт1500:00−7св32855 0.0 103018
03:00−8св22865 0.0 103115
06:00−9св32855 0.0 103117
09:00−2св22735 0.0 1025120
12:00+1всв22765 0.0 1023674
15:00+3св22705 0.0 1022866
18:00+3ссв12675 0.0 1021651
21:00−3ссв11852 0.0 102610
16 апреля, пт
пт1600:00−5св22885 0.0 102811
03:00−6св11875 0.0 102910
06:00−6св21865 0.0 103010
09:000с01723 0.0 102586
12:00+4юз10605 0.0 1022519
15:00
18:00+7з11500 0.0 1021831
21:000зсз11835 0.0 102410